Regional Weather Roundup
Issued by NWS

Home | Current Version | Previous Version | Graphics & Text | Print | Product List | Glossary On
Versions: 1 2 3 4 5 6 7 8 9 10 11 12 13 14 15 16 17 18 19 20 21 22 23 24 25 26 27 28 29 30 31 32 33 34 35 36 37 38 39 40 41 42 43 44 45 46 47 48 49 50
958
ASUS44 KLIX 241905
RWRLA
LOUISIANA WEATHER ROUNDUP
NATIONAL WEATHER SERVICE NEW ORLEANS LA
100 PM CST MON NOV 24 2014

NOTE: "FAIR" INDICATES FEW OR NO CLOUDS BELOW 12,000 FEET WITH NO
      SIGNIFICANT WEATHER AND/OR OBSTRUCTIONS TO VISIBILITY.
      SKY/WX - SKY CONDITION AND SIGNIFICANT WEATHER.
      TMP - AIR TEMPERATURE.    DP   - DEWPOINT TEMPERATURE.
      RH  - RELATIVE HUMIDITY.  PRES - PRESSURE.
      HX  - HEAT INDEX.         WCI  - WIND CHILL INDEX.

*  THESE STATIONS ARE NOT NWS OR FAA STATIONS AND ARE NOT UNDER
   NWS QUALITY CONTROL.

LAZ040-048-061>063-065-066-069-242000-
SOUTHEAST LOUISIANA

CITY           SKY/WX    TMP DP  RH WIND       PRES   REMARKS
N.O. AUDUBON     N/A     70  53  54 MISG        N/A
N.O. INTL ARPT PTSUNNY   69  50  50 NW12      29.88F
N.O. LAKEFRONT SUNNY     64  55  72 W8        29.89S
N.O. DOWNTOWN* FAIR      68  48  49 NW5       29.89S
SLIDELL        SUNNY     72  51  47 N9        29.86S
BATON ROUGE    SUNNY     65  44  46 NW8G17    29.92F
BOOTHVILLE     MOSUNNY   70  59  68 NW14      29.86F
BELLE CHASSE   PTSUNNY   71  48  43 VRB7      29.87S
BOGALUSA*        N/A     70  48  45 NW12      29.90S
NEW ROADS*     FAIR      62  44  52 NW10G16   29.94S
GONZALES*      FAIR      66  46  48 NW13G20   29.90S
HAMMOND*       SUNNY     70  45  40 N14       29.90F
HOUMA*         SUNNY     72  52  49 NW14      29.88S
PORT FOURCHON* CLEAR     73  59  60 N9        29.90S

$$

LAZ041-044-053-054-242000-
SOUTHWEST LOUISIANA

CITY           SKY/WX    TMP DP  RH WIND       PRES   REMARKS
LAKE CHARLES   SUNNY     63  39  41 N17       29.97F
LAFAYETTE      SUNNY     64  45  49 N13       29.95R
PATTERSON      SUNNY     66  48  52 N10       29.92F
SALT POINT       N/A     71  50  47 VRB6      29.89F
NEW IBERIA     SUNNY     66  45  46 N13G20    29.94S
CHENAULT AIRPK SUNNY     63  39  42 N13G21    29.98F

$$

LAZ027-028-242000-
CENTRAL LOUISIANA

CITY           SKY/WX    TMP DP  RH WIND       PRES   REMARKS
FORT POLK      SUNNY     62  33  34 N8        29.97F
ALEXANDRIA INT SUNNY     62  35  36 NW9       29.96F
ALEXANDRIA     SUNNY     62  34  35 VRB7      29.97F

$$

LAZ001-002-242000-
NORTHWEST LOUISIANA

CITY           SKY/WX    TMP DP  RH WIND       PRES   REMARKS
SHREVEPORT     SUNNY     61  31  32 NW14G20   30.00F
BARKSDALE AFB  SUNNY     61  28  28 NW15G21   30.00F
DTN SHREVEPORT SUNNY     60  28  29 NW10      30.00F

$$

LAZ014-016-242000-
NORTHEAST LOUISIANA

CITY           SKY/WX    TMP DP  RH WIND       PRES   REMARKS
MONROE         SUNNY     61  35  37 N13       29.97F
TALLULAH       SUNNY     61  37  41 N10G20    29.96F

$$




USA.gov is the U.S. government's official web portal to all federal, state and local government web resources and services.